Simultaneous Nadir Overpasses (SNOs) Predictions

Prediction of SNOs between AQUA and NOAA-19 Satellite Orbit:

Table of predicted SNOs for the next 14.0 days since TLE Epoch: 3/2/2012
Index Date (AQUA) Time (AQUA) AQUA Lat,Lon Date (NOAA-19) Time (NOAA-19) NOAA-19 Lat,Lon Distance(km) Time Diff (sec)
1 03/04/2012 17:50:21 46.07, 124.85 03/04/2012 17:49:22 46.08, 124.90 3.58 59
2 03/04/2012 18:36:42 -57.17, -62.44 03/04/2012 18:37:13 -57.17, -62.42 1.14 31
3 03/06/2012 22:33:52 48.76, 54.84 03/06/2012 22:33:23 48.76, 54.82 1.17 29
4 03/06/2012 23:20:25 -59.11,-132.34 03/06/2012 23:21:26 -59.10,-132.37 1.75 61
5 03/09/2012 03:16:57 52.96, -14.39 03/09/2012 03:16:57 52.95, -14.40 1.09 0
6 03/09/2012 03:54:01 -78.11, -77.72 03/09/2012 03:55:14 -77.56, -80.44 88.84 73
7 03/11/2012 07:13:46 -46.05, 104.00 03/11/2012 07:12:45 -46.03, 104.04 3.53 61
8 03/11/2012 08:00:03 57.05, -83.33 03/11/2012 08:00:32 57.05, -83.31 0.87 29
9 03/13/2012 11:56:58 -49.79, 34.42 03/13/2012 11:56:26 -49.79, 34.44 1.44 32
10 03/13/2012 12:43:29 59.92,-152.62 03/13/2012 12:44:28 59.92,-152.61 0.98 59
11 03/15/2012 16:40:21 -52.85, -35.27 03/15/2012 16:40:19 -52.85, -35.29 1.31 2




NCC Satellite Simultaneous Nadir Overpasses (SNOs) Prediction Service
